User: anonymous   Login
Location: Newark
(55.4390°N, 25.0170°E)
Time: 00:09:37
(UTC+00:00)
Language:

Envisat - Orbit

View from above orbital plane
View from above orbital plane
View from above satellite
View from above satellite

Ground track
Ground track

The orbit data is extracted from the following two-line orbital elements,

1 27386U 02009A   21341.72173384  .00000036  00000-0  25490-4 0  9996
2 27386  98.1640 327.0584 0001323  87.5859  85.1874 14.38058916 35978
Epoch (UTC): 07 December 2021 17:19:17
Eccentricity: 0.0001323
inclination: 98.1640°
perigee height: 764 km
apogee height: 766 km
right ascension of ascending node: 327.0584°
argument of perigee: 87.5859°
revolutions per day: 14.38058916
mean anomaly at epoch: 85.1874°
orbit number at epoch: 3597

The dashed part of the orbit path shows where the satellite is in the earth's shadow,  

DLR